CW8739 Weather Reports


time (UTC)temp
C
wind
direction
speed
KPH
gust
KPH
rain 1hr
cm
rain 24hr
cm
rain mn
cm
humidity
%
barometer
mb
20260507200347 12 244 6.4 17.7 0.20 8.51 1.70 95 1000.9
20260507194856 12 208 8.0 19.3 0.71 8.51 1.70 95 1000.8
20260507193338 12 173 11.3 16.1 1.30 8.51 1.70 95 1000.1
20260507191826 11 165 12.9 22.5 1.40 8.31 1.65 95 1000.0
20260507190408 12 190 11.3 19.3 1.80 8.31 1.65 95 1001.1
20260507184836 12 179 14.5 25.7 2.01 7.80 1.55 95 1001.5
20260507183328 12 188 11.3 27.4 2.11 7.19 1.45 95 1002.6
20260507181846 12 183 11.3 20.9 2.90 6.81 1.37 95 1002.3
20260507180359 13 184 11.3 30.6 3.81 6.50 1.30 95 1002.7
20260507174837 13 189 8.0 24.1 4.60 5.79 1.17 94 1002.9
20260507173330 13 179 11.3 19.3 5.00 5.11 1.02 94 1002.8
20260507171820 13 219 9.7 25.7 3.81 3.81 0.76 94 1003.5
20260507170343 13 217 14.5 25.7 2.69 2.69 0.53 93 1003.6
20260507164849 13 228 12.9 29.0 1.19 1.19 0.23 93 1003.5
20260507163332 13 180 29.0 46.7 0.10 0.10 0.03 91 1002.7
20260507161841 14 183 20.9 51.5 0.00 0.00 0.00 91 1002.8
20260507160342 14 175 27.4 49.9 0.00 0.00 0.00 90 1002.9
20260507154831 14 164 22.5 41.8 0.00 0.00 0.00 89 1003.4
20260507153355 14 179 25.7 46.7 0.00 0.00 0.00 88 1003.8
20260507151824 14 163 22.5 48.3 0.00 0.00 0.00 88 1004.2
20260507150348 14 168 29.0 46.7 0.00 0.00 0.00 88 1004.1
20260507144836 14 165 29.0 48.3 0.00 0.00 0.00 88 1004.8
20260507143329 13 200 25.7 51.5 0.00 0.00 0.00 88 1005.5
20260507141827 13 175 22.5 48.3 0.00 0.00 0.00 89 1005.3
20260507140342 13 180 25.7 48.3 0.00 0.00 0.00 88 1005.5
20260507134839 13 145 25.7 46.7 0.00 0.00 0.00 86 1005.9
20260507133334 15 179 30.6 57.9 0.00 0.00 0.00 83 1006.1
20260507131824 15 184 25.7 51.5 0.00 0.00 0.00 83 1006.0
20260507130328 14 182 25.7 43.5 0.00 0.00 0.00 84 1006.3
20260507124838 14 186 20.9 48.3 0.00 0.00 0.00 85 1006.4
20260507123332 14 174 24.1 40.2 0.00 0.00 0.00 85 1006.8
20260507121830 14 171 20.9 45.1 0.00 0.00 0.00 85 1006.9
20260507120323 15 175 19.3 61.2 0.00 0.00 0.00 84 1006.8
20260507114842 15 176 22.5 56.3 0.00 0.00 0.00 85 1006.6
20260507113354 14 175 35.4 61.2 0.00 0.00 0.00 84 1006.2
20260507111819 14 190 25.7 54.7 0.00 0.00 0.00 86 1006.8
20260507110344 13 196 29.0 49.9 0.00 0.00 0.00 88 1007.0
20260507104833 13 192 30.6 46.7 0.00 0.00 0.00 89 1006.8
20260507103346 13 209 20.9 45.1 0.00 0.00 0.00 89 1007.1
20260507101824 13 179 29.0 48.3 0.00 0.00 0.00 90 1007.3
20260507100333 13 178 25.7 48.3 0.00 0.00 0.00 90 1007.3
20260507094822 13 192 29.0 61.2 0.00 0.00 0.00 91 1007.4
20260507093325 12 161 30.6 54.7 0.00 0.00 0.00 92 1007.5
20260507091835 13 204 40.2 57.9 0.00 0.00 0.00 90 1007.6
20260507090338 12 188 17.7 37.0 0.00 0.00 0.00 88 1008.1
20260507084848 12 176 12.9 25.7 0.00 0.00 0.00 87 1007.9
20260507083351 12 180 11.3 25.7 0.00 0.00 0.00 87 1008.6
20260507081820 12 185 9.7 24.1 0.00 0.00 0.00 86 1009.4
20260507080343 12 181 14.5 32.2 0.00 0.00 0.00 87 1009.8
20260507074832 11 192 9.7 16.1 0.00 0.00 0.00 87 1009.9
20260507073327 11 206 4.8 24.1 0.00 0.00 0.00 88 1010.0
20260507071845 11 201 9.7 24.1 0.00 0.00 0.00 88 1010.0
20260507070338 11 190 19.3 29.0 0.00 0.00 0.00 89 1009.8
20260507064837 11 199 11.3 22.5 0.00 0.00 0.00 89 1010.8
20260507063329 11 200 9.7 24.1 0.00 0.00 0.00 88 1011.3
20260507061848 11 202 12.9 25.7 0.00 0.00 0.00 87 1011.6
20260507060409 11 196 12.9 30.6 0.00 0.00 0.00 87 1011.5
20260507054838 11 187 19.3 33.8 0.00 0.00 0.00 87 1011.6
20260507053333 11 188 12.9 30.6 0.00 0.00 0.00 87 1011.6
20260507051823 11 161 12.9 30.6 0.00 0.00 0.00 87 1011.8
20260507050325 10 196 12.9 25.7 0.00 0.00 0.00 87 1012.1
20260507044831 10 183 12.9 20.9 0.00 0.00 0.00 87 1012.9
20260507043354 10 182 9.7 17.7 0.00 0.00 0.00 87 1013.2
20260507041823 10 197 8.0 19.3 0.00 0.00 0.00 87 1013.5
20260507040404 11 198 9.7 19.3 0.00 0.00 0.00 86 1013.9
20260507034833 11 197 9.7 25.7 0.00 0.00 0.00 85 1014.1
20260507033326 11 179 9.7 29.0 0.00 0.00 0.00 85 1014.3
20260507031845 11 190 14.5 25.7 0.00 0.00 0.00 85 1014.7
20260507030335 11 192 9.7 22.5 0.00 0.00 0.00 85 1015.0
20260507024825 11 198 9.7 19.3 0.00 0.00 0.00 85 1015.2
20260507023349 11 199 9.7 22.5 0.00 0.00 0.00 84 1015.3
20260507021859 11 187 12.9 22.5 0.00 0.00 0.00 84 1015.4
20260507020340 11 188 4.8 19.3 0.00 0.00 0.00 84 1015.5
20260507014829 11 206 11.3 27.4 0.00 0.00 0.00 83 1015.3
20260507013323 12 195 11.3 25.7 0.00 0.00 0.00 82 1015.4
20260507011842 12 209 12.9 33.8 0.00 0.00 0.00 82 1015.3
20260507010335 12 180 14.5 32.2 0.00 0.00 0.00 80 1015.2
20260507004825 12 206 17.7 33.8 0.00 0.00 0.00 79 1015.1
20260507003348 13 188 17.7 35.4 0.00 0.00 0.00 78 1014.8
20260507001836 13 186 12.9 40.2 0.00 0.00 0.00 77 1014.9
20260507000329 14 183 19.3 35.4 0.00 0.00 0.00 75 1015.0
20260506234847 15 173 22.5 45.1 0.00 0.00 0.00 73 1014.8
20260506233348 15 200 29.0 48.3 0.00 0.00 0.00 72 1014.8
20260506231838 16 196 22.5 56.3 0.00 0.00 0.00 71 1014.7
20260506230331 16 198 22.5 45.1 0.00 0.00 0.00 70 1014.4
20260506224820 16 202 16.1 48.3 0.00 0.00 0.00 69 1014.3
20260506223342 16 184 24.1 48.3 0.00 0.00 0.00 69 1014.5
20260506221831 17 212 19.3 61.2 0.00 0.00 0.00 68 1014.2
20260506220335 17 213 29.0 46.7 0.00 0.00 0.00 67 1014.0
20260506214824 17 191 24.1 51.5 0.00 0.00 0.00 66 1014.0
20260506213346 18 206 22.5 46.7 0.00 0.00 0.00 65 1014.0
20260506211836 18 191 25.7 49.9 0.00 0.00 0.00 65 1014.1
20260506210330 18 214 24.1 48.3 0.00 0.00 0.00 63 1014.3
20260506204843 18 219 29.0 57.9 0.00 0.00 0.00 59 1014.1
20260506203336 18 202 25.7 49.9 0.00 0.00 0.00 63 1014.1
20260506201825 19 206 29.0 48.3 0.00 0.00 0.00 61 1014.0